Location: Newark
(47.9297°N, 19.1367°E)
Time: 21:11:47
(UTC+00:00)

ISS - Pass Details

Date: 27 September 2020
Orbit: 417 x 420 km, 51.6° (Epoch: 22 October)

Event Time Altitude Azimuth Distance (km) Brightness Sun altitude
Rises 17:27:46 0° 278° (W) 2,366 2.4 -10.4°
Reaches altitude 10° 17:29:56 10° 286° (WNW) 1,503 0.6 -10.8°
Maximum altitude 17:33:10 42° 359° (N) 614 -2.9 -11.3°
Enters shadow 17:35:40 15° 67° (ENE) 1,227 -1.9 -11.7°
